Showing default

FLOCK 4G 33, 62685

Orbit data source: Space-Track

FLOCK 4G 33, 62685 is a payload satellite owned by Planet (US) in SSO that was launched on Tue, 14 Jan 2025 UTC via an FALCON 9 launch vehicle from the Air Force Western Test Range (AFWTR). Payload-class satellites include a variety of spacecraft equipped with specific instruments for various scientific and technological missions. These include communications satellites like Starlink; space stations such as the ISS; scientific satellites like the Hubble; Earth observation satellites from companies like Planet Labs, Umbra, and HawkEye 360; GPS; miniature CubeSats for education and research; and military/defense satellites.

Loading next visibility...
Identifier
62685, 2025-009CE
Orbit
SSO
Country
Flag of USUS
Related business
Manufacturer
Planet
Mission
Operational Commercial Imaging
Bus & Motor
CUBESAT 3U, Unknown motor
Mass
5.7 kg wet, 5.7 kg dry
Launch date (UTC)
2025-01-14 (9 months ago)
Launch vehicle
FALCON 9
Launch site
Air Force Western Test Range (AFWTR)
Object type
Payload
Rocket body
Debris
Shape & HBR
Box + 2 Pan, 1.0 m
Radar Cross Section
0.072 m², Medium (>0.1 m² and < 1m²)

Expand to show TLE details & history
Last TLE update: 23 hours ago

TLE from 23 hours ago
0 FLOCK 4G 33
1 62685U 25009CE  25286.17396684  .00012177  00000-0  54961-3 0  9996
2 62685  97.4171   4.2743 0007194 115.0998 245.0985 15.21113010 41195
Epoch: 2025-10-13T04:10Z
TLE epoch observation values (Epoch: 2025-10-13T04:10:30.734Z)
Latitude
-0.00005°
Longitude
-80.33429°
Altitude
507.661 km
Speed
7.609 km/s
True Right ascension
00h 17m 05s
True Declination
0° 00' 00"
Sunlit
Object was in full shadow at epoch
Visualization orbit readout
Latitude
Unknown
Longitude
Unknown
Altitude
Unknown
Speed
Unknown
Apparent Right ascension
Unknown
Apparent Declination
Unknown
Sunlit
N/A
Visualization observer readout
Local Sidereal Time
21:21:02
Azimuth
Unknown
Elevation
Unknown
Doppler factor
Unknown
Orbital elements
Apogee altitude
504.395 km
Perigee altitude
494.499 km
Semi-major axis
6,877.584 km
Eccentricity
0.00072
Inclination
97.4171°
RAAN
4.2743°
Arg. of periapsis
115.0998°
True anomaly
245.02376°
Mean anomaly
245.0985°
Eccentric anomaly
245.06112°
Mean motion
3.8053 °/min
Orbital period
94.6 mins
BSTAR
0.00054961
Loading maneuver chart data...
Computing Atmospheric mass density...
Loading historical data...
Loading historical data...
Loading historical data...
Loading historical data...
Loading historical data...
Loading historical data...
Loading historical data...

Documentation

Showing up to 5 results
|